This is the latest recevied weather packets stored in our database for station/object K7CTM. If no packets are shown the sender has not sent any weather packets the latest 10 day(s).
| Time | Temp. | Humidity | Pressure | Rain* | Wind** | Luminosity | Snow |
|---|---|---|---|---|---|---|---|
| 1788671182 | 20° C | 42% | 1028.6 hPa | 0 mm | - | 0 W/m² | - |
| 1788670882 | 20.56° C | 42% | 1028.3 hPa | 0 mm | - | 0 W/m² | - |
| 1788670580 | 20.56° C | 42% | 1028.3 hPa | 0 mm | - | 0 W/m² | - |
| 1788670275 | 20.56° C | 42% | 1028.2 hPa | 0 mm | - | 0 W/m² | - |
| 1788669971 | 20.56° C | 42% | 1028.2 hPa | 0 mm | - | 0 W/m² | - |
| 1788669667 | 20.56° C | 42% | 1028.3 hPa | 0 mm | - | 0 W/m² | - |
| 1788669363 | 20.56° C | 41% | 1028.3 hPa | 0 mm | - | 0 W/m² | - |
| 1788669058 | 21.11° C | 41% | 1028.5 hPa | 0 mm | - | 0 W/m² | - |
| 1788668757 | 21.11° C | 40% | 1028.3 hPa | 0 mm | - | 0 W/m² | - |
| 1788668452 | 20.56° C | 42% | 1028.5 hPa | 0 mm | - | 0 W/m² | - |
| 1788668149 | 20° C | 42% | 1028.6 hPa | 0 mm | - | 0 W/m² | - |
| 1788667849 | 20.56° C | 41% | 1028.5 hPa | 0 mm | - | 0 W/m² | - |
| 1788667544 | 20.56° C | 41% | 1028.5 hPa | 0 mm | - | 0 W/m² | - |
| 1788667245 | 21.11° C | 40% | 1028.3 hPa | 0 mm | - | 0 W/m² | - |
| 1788666934 | 21.67° C | 38% | 1028.1 hPa | 0 mm | - | 0 W/m² | - |
| 1788666631 | 21.67° C | 38% | 1028.3 hPa | 0 mm | - | 0 W/m² | - |
| 1788666330 | 21.67° C | 38% | 1028 hPa | 0 mm | - | 0 W/m² | - |
| 1788666025 | 21.11° C | 38% | 1028.1 hPa | 0 mm | - | 0 W/m² | - |
| 1788665720 | 21.11° C | 38% | 1028.1 hPa | 0 mm | - | 0 W/m² | - |
| 1788665416 | 21.67° C | 38% | 1028.1 hPa | 0 mm | - | 0 W/m² | - |
| 1788665113 | 21.67° C | 37% | 1028.1 hPa | 0 mm | - | 0 W/m² | - |
| 1788664812 | 21.67° C | 37% | 1028.1 hPa | 0 mm | - | 0 W/m² | - |
| 1788664508 | 21.67° C | 37% | 1028.1 hPa | 0 mm | - | 0 W/m² | - |
| 1788664203 | 22.22° C | 36% | 1027.8 hPa | 0 mm | - | 0 W/m² | - |
| 1788663898 | 22.78° C | 36% | 1027.9 hPa | 0 mm | - | 0 W/m² | - |
* Rain latest hour (hover to see other rain measurements)
** Current wind speed in m/s (hover to see current wind gust speed)